FW5729 Weather Reports


time (UTC)temp
C
wind
direction
speed
KPH
gust
KPH
rain 1hr
cm
rain 24hr
cm
rain mn
cm
humidity
%
barometer
mb
20260507031531 15 40 3.2 6.4 0.00 1.07 1.07 87 1014.4
20260507030041 16 23 1.6 6.4 0.00 1.07 1.07 86 1014.2
20260507024543 16 20 1.6 12.9 0.00 1.07 1.07 86 1014.2
20260507023034 16 0 0.0 8.0 0.00 1.07 1.07 86 1014.3
20260507021534 16 61 3.2 8.0 0.00 1.07 1.07 87 1013.9
20260507020032 16 39 0.0 6.4 0.00 1.07 1.07 86 1013.6
20260507014545 16 60 3.2 9.7 0.00 1.07 1.07 86 1013.5
20260507013032 16 0 0.0 4.8 0.00 1.07 1.07 86 1013.2
20260507011533 16 57 0.0 9.7 0.00 1.07 1.07 86 1012.9
20260507010034 16 0 0.0 4.8 0.00 1.07 1.07 85 1012.8
20260507004539 16 0 1.6 4.8 0.00 1.07 1.07 85 1012.9
20260507003033 16 0 1.6 8.0 0.00 1.07 1.07 85 1012.3
20260507001535 16 0 1.6 14.5 0.00 1.07 1.07 84 1012.3
20260507000037 16 63 1.6 11.3 0.00 1.07 1.07 84 1012.3
20260506234539 16 11 4.8 14.5 0.00 1.07 1.07 84 1012.3
20260506233035 16 330 4.8 16.1 0.00 1.07 1.07 84 1012.5
20260506231532 16 18 8.0 16.1 0.00 1.07 1.07 84 1011.9
20260506230034 16 24 4.8 12.9 0.00 1.07 1.07 84 1012.0
20260506224538 16 30 8.0 16.1 0.00 1.07 1.07 85 1011.9
20260506223032 15 51 3.2 12.9 0.00 1.07 1.07 86 1012.0
20260506221533 15 351 3.2 12.9 0.00 1.07 1.07 86 1011.9
20260506220033 15 45 4.8 17.7 0.00 1.07 1.07 86 1011.9
20260506214532 15 36 6.4 16.1 0.00 1.07 1.07 85 1012.2
20260506213033 16 69 3.2 16.1 0.00 1.07 1.07 86 1012.0
20260506211534 16 61 6.4 16.1 0.00 1.07 1.07 86 1012.0
20260506210034 16 359 9.7 20.9 0.00 1.07 1.07 85 1012.1
20260506204535 16 36 3.2 19.3 0.00 1.07 1.07 86 1012.4
20260506203036 16 60 11.3 19.3 0.00 1.07 1.07 85 1012.4
20260506201533 16 338 6.4 19.3 0.00 1.07 1.07 86 1012.3
20260506200033 17 332 4.8 16.1 0.00 1.07 1.07 86 1012.1
20260506194537 17 0 6.4 17.7 0.00 1.07 1.07 86 1012.3
20260506193033 17 12 3.2 16.1 0.00 1.07 1.07 86 1012.0
20260506191532 17 326 8.0 17.7 0.00 1.07 1.07 87 1011.9
20260506190030 18 40 1.6 6.4 0.00 1.07 1.07 88 1012.0
20260506184534 18 346 1.6 9.7 0.00 1.07 1.07 87 1012.1
20260506183031 20 184 3.2 9.7 0.00 1.07 1.07 84 1011.9
20260506181533 20 350 1.6 6.4 0.00 1.07 1.07 87 1011.6
20260506180044 20 10 4.8 9.7 0.00 1.07 1.07 88 1011.7
20260506174531 20 60 1.6 9.7 0.00 1.07 1.07 89 1011.5
20260506173034 19 22 3.2 11.3 0.00 1.07 1.07 91 1011.3
20260506171533 18 77 4.8 12.9 0.00 1.07 1.07 92 1011.3
20260506170032 17 0 1.6 11.3 0.13 1.07 1.07 93 1011.2
20260506164532 17 53 6.4 12.9 1.07 1.07 1.07 94 1011.3
20260506163054 16 14 6.4 11.3 1.07 1.07 1.07 94 1011.5
20260506161533 16 56 3.2 11.3 1.07 1.07 1.07 94 1012.2
20260506160034 16 39 6.4 8.0 0.89 0.89 0.89 90 1012.5
20260506154543 16 15 9.7 27.4 0.00 0.00 0.00 86 1012.0
20260506153034 17 86 11.3 19.3 0.00 0.00 0.00 87 1011.9
20260506151532 18 94 8.0 17.7 0.00 0.00 0.00 85 1012.1
20260506150033 19 345 14.5 27.4 0.00 0.00 0.00 86 1011.6
20260506144530 23 68 16.1 29.0 0.00 0.00 0.00 81 1010.8
20260506143043 24 0 0.0 6.4 0.00 0.00 0.00 89 1009.7
20260506141537 24 0 0.0 4.8 0.00 0.00 0.00 90 1009.3
20260506140032 23 0 0.0 4.8 0.00 0.00 0.00 92 1009.2
20260506134531 23 52 0.0 4.8 0.00 0.00 0.00 92 1009.7
20260506133033 23 67 1.6 4.8 0.00 0.00 0.00 92 1008.8
20260506131533 23 77 0.0 3.2 0.00 0.00 0.00 93 1009.0
20260506130033 23 0 0.0 0.0 0.00 0.00 0.00 93 1008.7
20260506124533 22 0 0.0 0.0 0.00 0.00 0.00 94 1008.4
20260506123033 22 0 0.0 0.0 0.00 0.00 0.00 94 1008.2
20260506121540 22 0 0.0 0.0 0.00 0.00 0.00 94 1008.2
20260506120033 22 0 0.0 0.0 0.00 0.00 0.00 94 1008.3
20260506114541 22 0 0.0 0.0 0.00 0.00 0.00 93 1008.4
20260506113032 22 0 0.0 0.0 0.00 0.00 0.00 93 1008.4
20260506111538 22 0 0.0 0.0 0.00 0.00 0.00 92 1008.5
20260506110034 23 0 0.0 0.0 0.00 0.00 0.00 91 1008.5
20260506104534 23 0 0.0 0.0 0.00 0.00 0.00 90 1008.2
20260506103033 23 0 0.0 0.0 0.00 0.00 0.00 89 1008.4
20260506101534 23 0 0.0 0.0 0.00 0.00 0.00 89 1008.0
20260506100032 23 0 0.0 1.6 0.00 0.00 0.00 89 1007.8
20260506094535 23 0 0.0 0.0 0.00 0.00 0.00 89 1007.9
20260506093032 23 0 0.0 1.6 0.00 0.00 0.00 89 1007.6
20260506091532 23 214 0.0 3.2 0.00 0.00 0.00 88 1007.3
20260506090031 23 0 0.0 0.0 0.00 0.00 0.00 88 1007.2
20260506084532 23 0 0.0 1.6 0.00 0.00 0.00 88 1007.0
20260506083032 23 0 0.0 6.4 0.00 0.00 0.00 87 1007.1
20260506081528 23 0 0.0 6.4 0.00 0.00 0.00 87 1007.3
20260506073038 23 238 0.0 9.7 0.00 0.00 0.00 87 1007.5
20260506071532 23 0 3.2 14.5 0.00 0.00 0.00 87 1007.6
20260506061536 23 0 0.0 9.7 0.00 0.00 0.00 89 1007.5
20260506044542 23 0 0.0 1.6 0.00 0.00 0.00 88 1007.7
20260506043038 23 0 0.0 8.0 0.00 0.00 0.00 88 1007.5
20260506041533 23 0 0.0 4.8 0.00 0.00 0.00 87 1007.6
20260506040051 24 203 0.0 4.8 0.00 0.00 0.00 87 1007.5
20260506034534 24 0 0.0 1.6 0.00 0.00 0.00 86 1007.3
20260506033034 24 204 0.0 3.2 0.00 0.00 0.00 85 1006.9